QPF
0.09 0.08 0.07 0.06 0.04 0.04 0.05 0.07 0.09 0.09 0.08 0.06 0.05 0.05 0.05 0.06 0.07 0.08 0.06 0.04 0.03 0.04 0.05 0.05 0.06 0.08 0.10 0.12 0.12 0.12 0.13 0.14 0.12 0.09 0.07 0.07 0.06 0.05
0.04 0.04 0.05 0.04 0.05 0.06 0.07 0.09 0.11 0.10 0.10 0.08 0.07 0.07 0.06 0.05 0.07 0.08 0.07 0.05 0.04 0.03 0.04 0.05 0.05 0.06 0.07 0.08 0.10 0.11 0.12 0.14 0.16 0.14 0.11 0.08 0.08 0.06
0.05 0.05 0.04 0.04 0.05 0.08 0.09 0.09 0.11 0.09 0.08 0.07 0.06 0.07 0.06 0.06 0.05 0.06 0.04 0.04 0.04 0.03 0.04 0.05 0.06 0.06 0.05 0.06 0.07 0.09 0.10 0.12 0.12 0.12 0.11 0.09 0.08 0.07
0.05 0.06 0.05 0.05 0.05 0.06 0.07 0.08 0.09 0.09 0.09 0.09 0.09 0.07 0.06 0.07 0.07 0.07 0.05 0.04 0.05 0.04 0.04 0.04 0.05 0.05 0.06 0.05 0.06 0.07 0.08 0.10 0.12 0.12 0.11 0.09 0.08 0.08
0.05 0.06 0.06 0.06 0.06 0.06 0.06 0.06 0.06 0.06 0.06 0.06 0.07 0.07 0.06 0.06 0.07 0.08 0.06 0.05 0.05 0.04 0.04 0.04 0.05 0.06 0.06 0.07 0.06 0.07 0.08 0.09 0.10 0.11 0.11 0.10 0.08 0.06
0.03 0.04 0.05 0.05 0.06 0.08 0.06 0.05 0.05 0.05 0.05 0.06 0.06 0.06 0.06 0.06 0.06 0.08 0.08 0.06 0.07 0.06 0.05 0.04 0.04 0.05 0.06 0.05 0.05 0.05 0.05 0.05 0.05 0.06 0.06 0.06 0.05 0.04
0.04 0.04 0.03 0.04 0.05 0.06 0.06 0.07 0.07 0.07 0.07 0.08 0.08 0.08 0.07 0.08 0.06 0.06 0.07 0.06 0.07 0.07 0.06 0.05 0.04 0.06 0.06 0.05 0.04 0.04 0.04 0.04 0.04 0.04 0.04 0.04 0.04 0.04
0.05 0.04 0.04 0.04 0.04 0.04 0.05 0.06 0.07 0.08 0.08 0.07 0.07 0.07 0.07 0.06 0.05 0.05 0.06 0.05 0.05 0.04 0.05 0.05 0.05 0.06 0.06 0.05 0.04 0.03 0.03 0.03 0.03 0.03 0.03 0.03 0.03 0.03
0.05 0.05 0.05 0.04 0.04 0.03 0.03 0.04 0.05 0.06 0.05 0.06 0.07 0.07 0.05 0.04 0.04 0.06 0.06 0.05 0.04 0.03 0.03 0.04 0.05 0.05 0.04 0.03 0.04 0.03 0.02 0.02 0.02 0.02 0.02 0.02 0.02 0.02
0.05 0.05 0.04 0.04 0.04 0.05 0.05 0.04 0.03 0.03 0.02 0.03 0.04 0.05 0.05 0.05 0.04 0.06 0.07 0.05 0.06 0.04 0.03 0.04 0.04 0.05 0.05 0.04 0.03 0.03 0.02 0.01 0.01 0.01 0.01 0.01 0.01 0.01
0.03 0.03 0.04 0.04 0.03 0.03 0.03 0.04 0.03 0.03 0.02 0.02 0.02 0.03 0.04 0.04 0.03 0.05 0.06 0.05 0.06 0.06 0.04 0.04 0.04 0.05 0.05 0.05 0.04 0.04 0.03 0.03 0.02 0.01 0.01 0.01 0.01 0.01
0.04 0.03 0.03 0.02 0.01 0.01 0.01 0.02 0.02 0.02 0.01 0.02 0.02 0.02 0.02 0.02 0.03 0.03 0.04 0.04 0.04 0.05 0.04 0.04 0.04 0.04 0.05 0.05 0.04 0.04 0.04 0.04 0.03 0.02 0.01 0.01 0.01 0.01
0.04 0.03 0.02 0.01 0.01 0.01 0.01 0.01 0.02 0.02 0.01 0.01 0.01 0.02 0.03 0.03 0.03 0.03 0.03 0.03 0.03 0.03 0.04 0.03 0.04 0.04 0.05 0.04 0.04 0.03 0.03 0.03 0.03 0.03 0.02 0.01 0.02 0.01
0.04 0.03 0.02 0.02 0.02 0.02 0.01 0.01 0.01 0.01 0.01 0.01 0.01 0.01 0.02 0.01 0.01 0.02 0.03 0.03 0.02 0.02 0.02 0.03 0.04 0.05 0.05 0.04 0.03 0.03 0.02 0.03 0.03 0.02 0.02 0.02 0.02 0.02
0.03 0.03 0.02 0.02 0.01 0.01 0.01 0.01 0.01 0.01 0.01 0.01 0.01 0.02 0.02 0.02 0.01 0.01 0.02 0.02 0.02 0.01 0.01 0.01 0.02 0.03 0.04 0.04 0.03 0.03 0.02 0.02 0.02 0.02 0.02 0.02 0.02 0.02
0.01 0.01 0.01 0.01 0.01 0.01 0.00 0.00 0.00 0.01 0.02 0.01 0.02 0.01 0.01 0.01 0.01 0.01 0.02 0.02 0.02 0.02 0.02 0.01 0.01 0.02 0.02 0.03 0.03 0.02 0.02 0.01 0.01 0.01 0.02 0.02 0.02 0.02
0.00 0.00 0.00 0.01 0.00 0.00 0.00 0.00 0.00 0.00 0.01 0.02 0.01 0.00 0.00 0.00 0.01 0.01 0.01 0.03 0.03 0.02 0.02 0.02 0.01 0.01 0.02 0.03 0.02 0.02 0.02 0.02 0.01 0.01 0.01 0.02 0.02 0.02
0.01 0.00 0.00 0.00 0.00 0.00 0.00 0.00 0.00 0.00 0.01 0.02 0.02 0.01 0.01 0.01 0.01 0.01 0.01 0.02 0.02 0.02 0.02 0.02 0.02 0.01 0.02 0.01 0.01 0.01 0.02 0.02 0.02 0.01 0.01 0.02 0.02 0.01
0.01 0.01 0.01 0.00 0.00 0.00 0.00 0.00 0.00 0.00 0.00 0.00 0.01 0.01 0.01 0.01 0.01 0.00 0.01 0.01 0.01 0.01 0.01 0.02 0.03 0.02 0.02 0.02 0.01 0.00 0.01 0.02 0.02 0.01 0.01 0.01 0.01 0.01
0.01 0.01 0.01 0.01 0.01 0.00 0.00 0.00 0.00 0.01 0.01 0.00 0.00 0.00 0.00 0.01 0.01 0.01 0.01 0.01 0.01 0.01 0.02 0.02 0.02 0.02 0.02 0.02 0.02 0.01 0.01 0.01 0.01 0.02 0.01 0.01 0.01 0.01
0.01 0.01 0.02 0.02 0.01 0.01 0.01 0.00 0.00 0.01 0.01 0.01 0.01 0.01 0.00 0.01 0.01 0.02 0.02 0.02 0.02 0.01 0.02 0.02 0.02 0.01 0.02 0.02 0.02 0.02 0.01 0.01 0.01 0.01 0.01 0.01 0.01 0.01
0.02 0.02 0.02 0.02 0.02 0.02 0.01 0.01 0.01 0.01 0.01 0.01 0.01 0.01 0.01 0.01 0.02 0.02 0.03 0.03 0.03 0.02 0.02 0.02 0.02 0.02 0.03 0.04 0.04 0.03 0.03 0.03 0.02 0.02 0.02 0.02 0.01 0.01
0.02 0.02 0.02 0.03 0.03 0.03 0.02 0.02 0.02 0.02 0.02 0.01 0.01 0.02 0.01 0.02 0.02 0.01 0.01 0.02 0.02 0.02 0.02 0.02 0.02 0.03 0.04 0.04 0.05 0.04 0.04 0.03 0.02 0.02 0.01 0.01 0.01 0.01
MSLP
1017.71 1017.95 1018.18 1018.40 1018.59 1018.74 1018.84 1018.90 1018.91 1018.91 1018.90 1018.92 1018.96 1019.04 1019.14 1019.25 1019.35 1019.41 1019.43 1019.40 1019.31 1019.17 1019.03 1018.88 1018.76 1018.67 1018.63 1018.62 1018.61 1018.59 1018.53 1018.39 1018.16 1017.84 1017.43 1016.95 1016.42 1015.90
1017.57 1017.85 1018.12 1018.38 1018.61 1018.79 1018.92 1018.99 1019.02 1019.01 1018.99 1018.97 1018.97 1018.98 1019.01 1019.04 1019.05 1019.03 1018.98 1018.88 1018.75 1018.61 1018.47 1018.36 1018.29 1018.27 1018.28 1018.32 1018.36 1018.34 1018.26 1018.07 1017.76 1017.35 1016.83 1016.25 1015.65 1015.06
1017.37 1017.71 1018.03 1018.33 1018.60 1018.82 1018.99 1019.09 1019.13 1019.14 1019.11 1019.07 1019.03 1018.99 1018.95 1018.90 1018.82 1018.72 1018.59 1018.43 1018.26 1018.10 1017.96 1017.88 1017.86 1017.90 1017.98 1018.07 1018.13 1018.12 1018.01 1017.77 1017.39 1016.89 1016.28 1015.60 1014.91 1014.25
1017.13 1017.52 1017.89 1018.24 1018.56 1018.81 1019.01 1019.15 1019.23 1019.26 1019.24 1019.20 1019.14 1019.06 1018.97 1018.85 1018.70 1018.52 1018.32 1018.09 1017.88 1017.69 1017.56 1017.50 1017.51 1017.59 1017.71 1017.84 1017.92 1017.92 1017.79 1017.51 1017.07 1016.48 1015.79 1015.04 1014.28 1013.56
1016.83 1017.27 1017.69 1018.09 1018.44 1018.75 1018.99 1019.16 1019.28 1019.34 1019.36 1019.33 1019.28 1019.19 1019.06 1018.90 1018.69 1018.45 1018.18 1017.90 1017.64 1017.42 1017.27 1017.21 1017.23 1017.33 1017.47 1017.62 1017.71 1017.71 1017.56 1017.26 1016.78 1016.16 1015.41 1014.61 1013.80 1013.05
1016.49 1016.97 1017.44 1017.87 1018.26 1018.60 1018.88 1019.11 1019.27 1019.37 1019.43 1019.43 1019.40 1019.32 1019.18 1019.00 1018.76 1018.47 1018.15 1017.82 1017.52 1017.26 1017.08 1016.99 1017.00 1017.09 1017.23 1017.38 1017.47 1017.47 1017.32 1017.01 1016.53 1015.90 1015.15 1014.34 1013.52 1012.75
1016.10 1016.62 1017.12 1017.59 1018.01 1018.38 1018.70 1018.96 1019.17 1019.32 1019.42 1019.47 1019.47 1019.41 1019.28 1019.10 1018.84 1018.53 1018.18 1017.82 1017.47 1017.17 1016.95 1016.82 1016.80 1016.86 1016.97 1017.10 1017.19 1017.18 1017.05 1016.76 1016.31 1015.71 1015.00 1014.22 1013.43 1012.67
1015.65 1016.20 1016.73 1017.23 1017.68 1018.08 1018.44 1018.73 1018.98 1019.17 1019.32 1019.41 1019.44 1019.42 1019.32 1019.14 1018.90 1018.58 1018.21 1017.82 1017.44 1017.10 1016.84 1016.66 1016.59 1016.60 1016.68 1016.78 1016.85 1016.86 1016.75 1016.50 1016.10 1015.57 1014.94 1014.23 1013.51 1012.81
1015.14 1015.72 1016.28 1016.80 1017.29 1017.72 1018.10 1018.43 1018.71 1018.94 1019.12 1019.24 1019.31 1019.32 1019.25 1019.10 1018.87 1018.56 1018.20 1017.80 1017.40 1017.03 1016.72 1016.50 1016.38 1016.34 1016.37 1016.44 1016.50 1016.50 1016.42 1016.23 1015.91 1015.48 1014.95 1014.35 1013.73 1013.11
1014.57 1015.18 1015.78 1016.33 1016.84 1017.31 1017.72 1018.07 1018.37 1018.63 1018.83 1018.98 1019.07 1019.10 1019.06 1018.93 1018.72 1018.44 1018.09 1017.70 1017.30 1016.92 1016.60 1016.34 1016.18 1016.09 1016.08 1016.11 1016.15 1016.16 1016.10 1015.97 1015.74 1015.41 1015.00 1014.53 1014.02 1013.51
1013.96 1014.61 1015.24 1015.83 1016.38 1016.87 1017.31 1017.68 1018.00 1018.26 1018.48 1018.64 1018.74 1018.78 1018.76 1018.65 1018.47 1018.21 1017.90 1017.54 1017.16 1016.79 1016.46 1016.20 1016.00 1015.89 1015.84 1015.83 1015.85 1015.85 1015.82 1015.73 1015.57 1015.34 1015.05 1014.71 1014.33 1013.93
1013.34 1014.03 1014.69 1015.33 1015.91 1016.43 1016.89 1017.28 1017.61 1017.88 1018.08 1018.24 1018.34 1018.38 1018.36 1018.28 1018.12 1017.90 1017.63 1017.31 1016.97 1016.64 1016.34 1016.08 1015.88 1015.74 1015.66 1015.63 1015.62 1015.61 1015.59 1015.52 1015.42 1015.27 1015.07 1014.84 1014.58 1014.30
1012.76 1013.48 1014.19 1014.85 1015.47 1016.02 1016.49 1016.89 1017.22 1017.47 1017.67 1017.80 1017.89 1017.92 1017.90 1017.83 1017.70 1017.52 1017.29 1017.03 1016.75 1016.48 1016.21 1015.98 1015.80 1015.66 1015.56 1015.50 1015.46 1015.44 1015.40 1015.35 1015.27 1015.17 1015.05 1014.90 1014.74 1014.57
1012.25 1013.00 1013.73 1014.43 1015.07 1015.63 1016.12 1016.51 1016.83 1017.06 1017.23 1017.34 1017.40 1017.42 1017.39 1017.32 1017.22 1017.08 1016.91 1016.71 1016.50 1016.29 1016.08 1015.90 1015.74 1015.61 1015.51 1015.43 1015.36 1015.31 1015.25 1015.19 1015.12 1015.04 1014.96 1014.88 1014.80 1014.72
1011.82 1012.59 1013.34 1014.05 1014.70 1015.27 1015.75 1016.13 1016.43 1016.64 1016.77 1016.85 1016.88 1016.88 1016.84 1016.79 1016.71 1016.60 1016.49 1016.36 1016.21 1016.07 1015.93 1015.79 1015.67 1015.56 1015.46 1015.37 1015.28 1015.20 1015.11 1015.03 1014.95 1014.88 1014.83 1014.79 1014.77 1014.76
1011.48 1012.25 1013.00 1013.71 1014.36 1014.91 1015.37 1015.73 1015.99 1016.17 1016.28 1016.32 1016.33 1016.31 1016.27 1016.22 1016.16 1016.09 1016.02 1015.95 1015.87 1015.79 1015.71 1015.63 1015.55 1015.46 1015.37 1015.27 1015.17 1015.07 1014.96 1014.87 1014.78 1014.72 1014.68 1014.68 1014.70 1014.75
1011.18 1011.94 1012.68 1013.37 1013.98 1014.51 1014.94 1015.27 1015.50 1015.65 1015.73 1015.75 1015.74 1015.71 1015.66 1015.62 1015.58 1015.55 1015.52 1015.50 1015.48 1015.45 1015.42 1015.38 1015.34 1015.28 1015.20 1015.11 1015.01 1014.90 1014.79 1014.69 1014.61 1014.56 1014.54 1014.57 1014.64 1014.74
1010.87 1011.61 1012.31 1012.96 1013.54 1014.03 1014.42 1014.72 1014.92 1015.04 1015.11 1015.12 1015.10 1015.07 1015.03 1015.00 1014.99 1014.98 1014.99 1015.00 1015.02 1015.04 1015.05 1015.05 1015.03 1015.00 1014.94 1014.87 1014.78 1014.69 1014.59 1014.51 1014.45 1014.43 1014.44 1014.51 1014.62 1014.76
1010.49 1011.19 1011.85 1012.45 1012.98 1013.43 1013.79 1014.05 1014.24 1014.35 1014.40 1014.42 1014.41 1014.39 1014.38 1014.37 1014.38 1014.40 1014.44 1014.48 1014.53 1014.57 1014.61 1014.63 1014.64 1014.63 1014.60 1014.56 1014.50 1014.43 1014.37 1014.32 1014.30 1014.32 1014.38 1014.49 1014.64 1014.83
1010.00 1010.65 1011.25 1011.80 1012.29 1012.69 1013.02 1013.26 1013.44 1013.55 1013.61 1013.65 1013.67 1013.68 1013.69 1013.72 1013.76 1013.81 1013.88 1013.94 1014.01 1014.08 1014.13 1014.17 1014.20 1014.21 1014.21 1014.19 1014.16 1014.14 1014.12 1014.12 1014.15 1014.21 1014.32 1014.48 1014.67 1014.90
1009.38 1009.96 1010.51 1011.01 1011.45 1011.82 1012.12 1012.36 1012.53 1012.66 1012.75 1012.82 1012.87 1012.92 1012.98 1013.05 1013.12 1013.21 1013.30 1013.40 1013.48 1013.56 1013.64 1013.69 1013.74 1013.77 1013.78 1013.79 1013.80 1013.81 1013.84 1013.88 1013.95 1014.06 1014.22 1014.41 1014.64 1014.89
1008.66 1009.17 1009.65 1010.10 1010.50 1010.84 1011.13 1011.36 1011.55 1011.70 1011.82 1011.93 1012.03 1012.13 1012.23 1012.34 1012.46 1012.59 1012.71 1012.84 1012.95 1013.05 1013.14 1013.21 1013.27 1013.32 1013.35 1013.38 1013.42 1013.45 1013.51 1013.58 1013.68 1013.82 1014.00 1014.21 1014.46 1014.73
1007.89 1008.32 1008.74 1009.14 1009.50 1009.82 1010.10 1010.34 1010.54 1010.71 1010.87 1011.01 1011.15 1011.29 1011.44 1011.60 1011.76 1011.93 1012.09 1012.25 1012.39 1012.52 1012.63 1012.73 1012.80 1012.87 1012.92 1012.96 1013.00 1013.05 1013.11 1013.20 1013.30 1013.44 1013.61 1013.82 1014.06 1014.32
Thickness
5705 5704 5704 5706 5706 5705 5704 5701 5697 5693 5693 5694 5695 5695 5695 5693 5691 5691 5690 5688 5686 5684 5683 5682 5680 5679 5678 5676 5675 5674 5672 5671 5668 5667 5666 5664 5664 5663
5702 5701 5701 5703 5702 5702 5701 5700 5698 5694 5690 5692 5691 5692 5689 5690 5687 5687 5686 5684 5682 5681 5679 5678 5676 5675 5673 5672 5671 5669 5668 5666 5664 5662 5661 5660 5659 5658
5700 5699 5697 5697 5698 5698 5698 5697 5695 5693 5687 5687 5688 5687 5684 5683 5683 5683 5683 5682 5680 5678 5676 5674 5672 5670 5668 5667 5666 5665 5663 5661 5660 5658 5656 5655 5654 5653
5697 5696 5694 5694 5692 5693 5692 5692 5690 5688 5686 5682 5682 5683 5680 5679 5679 5678 5680 5680 5679 5675 5673 5670 5668 5666 5664 5663 5661 5660 5658 5657 5655 5653 5652 5651 5649 5648
5694 5693 5692 5691 5689 5689 5687 5687 5686 5686 5683 5681 5679 5678 5678 5677 5675 5675 5676 5675 5676 5672 5669 5666 5664 5663 5661 5659 5657 5656 5654 5652 5650 5648 5646 5645 5644 5643
5691 5690 5689 5688 5686 5684 5684 5682 5682 5681 5680 5679 5677 5675 5674 5673 5672 5672 5672 5672 5671 5671 5667 5664 5662 5659 5657 5655 5653 5651 5649 5647 5645 5643 5641 5640 5639 5638
5687 5687 5685 5683 5680 5679 5681 5679 5678 5678 5678 5676 5675 5673 5671 5668 5668 5669 5668 5668 5667 5667 5665 5664 5661 5659 5656 5652 5649 5647 5645 5643 5640 5638 5637 5635 5633 5632
5682 5682 5681 5679 5675 5673 5672 5671 5672 5673 5673 5672 5671 5668 5666 5666 5665 5665 5664 5663 5661 5662 5660 5660 5660 5657 5655 5652 5648 5644 5642 5639 5637 5634 5632 5630 5629 5627
5677 5677 5678 5676 5673 5671 5668 5666 5666 5665 5665 5666 5666 5663 5663 5663 5661 5661 5659 5658 5656 5658 5656 5655 5655 5653 5652 5649 5644 5641 5638 5636 5633 5631 5629 5627 5625 5623
5673 5672 5670 5669 5668 5665 5665 5664 5663 5662 5661 5662 5661 5660 5660 5658 5657 5656 5655 5654 5654 5653 5652 5650 5651 5649 5648 5645 5640 5637 5634 5632 5630 5627 5625 5623 5621 5620
5667 5666 5665 5663 5659 5658 5660 5659 5657 5657 5655 5654 5653 5653 5652 5651 5650 5652 5652 5652 5651 5651 5649 5646 5647 5645 5644 5642 5638 5634 5631 5628 5626 5624 5622 5619 5617 5616
5662 5661 5656 5655 5652 5651 5653 5654 5652 5652 5652 5651 5649 5648 5649 5647 5645 5645 5647 5647 5647 5645 5644 5641 5642 5641 5639 5639 5637 5633 5629 5626 5623 5621 5618 5616 5614 5613
5658 5657 5653 5647 5645 5645 5645 5646 5645 5645 5647 5648 5648 5647 5646 5645 5644 5642 5642 5642 5641 5640 5640 5637 5636 5635 5634 5633 5633 5631 5629 5626 5622 5619 5616 5613 5611 5609
5651 5651 5647 5641 5639 5638 5639 5638 5637 5638 5644 5645 5644 5643 5642 5641 5640 5638 5635 5634 5633 5632 5631 5630 5630 5628 5627 5626 5626 5626 5625 5622 5620 5618 5615 5611 5607 5604
5645 5640 5637 5635 5634 5634 5632 5632 5632 5635 5638 5638 5638 5638 5637 5635 5634 5632 5630 5628 5627 5626 5625 5623 5623 5623 5622 5621 5620 5619 5618 5617 5615 5613 5611 5609 5606 5603
5638 5634 5630 5629 5629 5629 5629 5629 5630 5632 5632 5632 5632 5632 5632 5630 5628 5627 5626 5625 5624 5624 5622 5619 5617 5616 5616 5615 5615 5614 5613 5611 5610 5608 5605 5603 5601 5599
5631 5632 5631 5630 5630 5630 5629 5628 5627 5627 5626 5626 5626 5625 5625 5625 5623 5622 5620 5619 5618 5618 5618 5616 5614 5613 5611 5610 5610 5610 5608 5607 5605 5603 5599 5598 5597 5595
5624 5627 5627 5627 5627 5626 5625 5624 5623 5622 5621 5620 5620 5619 5618 5617 5617 5616 5615 5614 5613 5613 5612 5611 5610 5608 5607 5607 5602 5603 5603 5602 5600 5597 5595 5593 5592 5590
5619 5622 5622 5622 5622 5622 5621 5620 5618 5617 5616 5615 5614 5613 5612 5611 5610 5610 5609 5608 5607 5607 5607 5606 5604 5602 5600 5601 5601 5595 5595 5595 5593 5592 5590 5588 5586 5584
5618 5618 5618 5617 5617 5616 5616 5614 5613 5612 5611 5609 5608 5607 5606 5605 5604 5604 5603 5601 5601 5601 5601 5600 5598 5595 5593 5592 5593 5591 5587 5587 5586 5584 5583 5581 5580 5577
5615 5615 5614 5613 5612 5611 5610 5609 5608 5606 5604 5603 5602 5600 5600 5599 5598 5597 5597 5594 5593 5594 5593 5592 5590 5586 5587 5586 5585 5586 5583 5578 5576 5574 5574 5573 5572 5572
5611 5610 5608 5607 5606 5605 5604 5603 5602 5601 5599 5598 5597 5595 5594 5593 5592 5590 5591 5590 5589 5588 5587 5586 5584 5582 5581 5580 5579 5578 5577 5574 5570 5567 5564 5563 5562 5563
5605 5604 5602 5601 5599 5598 5598 5598 5596 5595 5594 5592 5591 5589 5588 5587 5586 5585 5584 5583 5582 5581 5580 5578 5577 5576 5575 5574 5572 5571 5569 5567 5565 5563 5561 5557 5554 5551